Big Bear Station Historical Data
Daily Summary for June 9, 2017 Units:  English    Metric   Both
Next Day »
Daily Weekly Monthly Yearly Custom
  High: Low: Average:
Temperature: 72.1 °F 45.7 °F 57.7 °F
Dew Point: 46.9 °F 12.1 °F 35.4 °F
Humidity: 77% 23% 44%
Wind Speed: 10.4mph 0.0mph 2.5mph
Wind Gust: -999.0mph - -
Wind- - SW
Pressure: 30.14 in 30.08 in -
Precipitation: 0.00 in    
Historical Graphs
 
 
Tabular Data for June 9, 2017
Time Temperature Dew Point Pressure Wind Wind Speed Wind Gust Humidity Rainfall Rate (Hourly)
00:11 48.9 °F 13.7 °F 30.14 in SSE 2.2 mph -999.0 mph 24% 0 in
00:26 48.2 °F 12.1 °F 30.14 in Calm   -999.0 mph 23% 0 in
00:41 48.4 °F 12.3 °F 30.14 in South 1.1 mph -999.0 mph 23% 0 in
00:56 47.7 °F 15.3 °F 30.13 in South 2.2 mph -999.0 mph 27% 0 in
01:12 47.3 °F 18.2 °F 30.13 in Calm   -999.0 mph 31% 0 in
01:27 46.9 °F 17.8 °F 30.13 in Calm   -999.0 mph 31% 0 in
01:43 46.4 °F 20.2 °F 30.13 in Calm   -999.0 mph 35% 0 in
01:58 45.9 °F 19.1 °F 30.13 in Calm   -999.0 mph 34% 0 in
02:13 46.4 °F 15.0 °F 30.13 in Calm   -999.0 mph 28% 0 in
02:28 46.0 °F 17.8 °F 30.12 in Calm   -999.0 mph 32% 0 in
02:43 46.6 °F 12.6 °F 30.12 in Calm   -999.0 mph 25% 0 in
02:59 46.0 °F 13.0 °F 30.12 in Calm   -999.0 mph 26% 0 in
03:14 46.2 °F 16.4 °F 30.12 in Calm   -999.0 mph 30% 0 in
03:29 46.4 °F 19.5 °F 30.12 in Calm   -999.0 mph 34% 0 in
03:44 46.0 °F 19.9 °F 30.12 in Calm   -999.0 mph 35% 0 in
03:59 45.7 °F 20.2 °F 30.12 in Calm   -999.0 mph 36% 0 in
04:15 46.0 °F 19.9 °F 30.12 in Calm   -999.0 mph 35% 0 in
04:30 45.9 °F 20.4 °F 30.12 in Calm   -999.0 mph 36% 0 in
04:45 46.2 °F 21.3 °F 30.11 in SSE 2.2 mph -999.0 mph 37% 0 in
05:00 46.8 °F 24.3 °F 30.11 in South 1.7 mph -999.0 mph 41% 0 in
05:16 47.1 °F 26.8 °F 30.11 in SSE 2.2 mph -999.0 mph 45% 0 in
05:31 48.2 °F 29.9 °F 30.12 in South 2.2 mph -999.0 mph 49% 0 in
05:46 48.4 °F 30.1 °F 30.12 in South 2.2 mph -999.0 mph 49% 0 in
06:01 48.6 °F 31.3 °F 30.12 in SE 2.7 mph -999.0 mph 51% 0 in
06:17 49.3 °F 32.9 °F 30.12 in SSE 1.1 mph -999.0 mph 53% 0 in
06:32 51.3 °F 34.7 °F 30.12 in Calm   -999.0 mph 53% 0 in
06:47 52.0 °F 35.4 °F 30.12 in West 1.7 mph -999.0 mph 53% 0 in
07:02 53.1 °F 35.9 °F 30.12 in Calm   -999.0 mph 52% 0 in
07:17 54.3 °F 36.6 °F 30.12 in North 1.7 mph -999.0 mph 51% 0 in
07:33 55.0 °F 37.2 °F 30.13 in NNW 1.7 mph -999.0 mph 51% 0 in
07:48 55.6 °F 37.2 °F 30.13 in NW 2.7 mph -999.0 mph 50% 0 in
08:03 56.5 °F 37.6 °F 30.13 in Calm   -999.0 mph 49% 0 in
08:18 57.2 °F 38.7 °F 30.13 in NW 1.7 mph -999.0 mph 50% 0 in
08:33 58.3 °F 39.2 °F 30.13 in NW 3.7 mph -999.0 mph 49% 0 in
08:49 59.2 °F 40.0 °F 30.13 in NNW 4.2 mph -999.0 mph 49% 0 in
09:04 59.9 °F 40.7 °F 30.14 in NW 4.7 mph -999.0 mph 49% 0 in
09:19 61.2 °F 40.3 °F 30.13 in North 3.2 mph -999.0 mph 46% 0 in
09:34 62.2 °F 41.7 °F 30.13 in East 2.7 mph -999.0 mph 47% 0 in
09:50 63.3 °F 43.3 °F 30.13 in West 4.7 mph -999.0 mph 48% 0 in
10:05 63.7 °F 44.2 °F 30.13 in ESE 5.3 mph -999.0 mph 49% 0 in
10:20 64.4 °F 44.3 °F 30.13 in East 3.7 mph -999.0 mph 48% 0 in
10:35 65.5 °F 43.6 °F 30.13 in NNW 2.7 mph -999.0 mph 45% 0 in
10:51 65.8 °F 44.4 °F 30.13 in North 6.3 mph -999.0 mph 46% 0 in
11:06 66.6 °F 44.0 °F 30.14 in NW 5.3 mph -999.0 mph 44% 0 in
11:21 67.5 °F 43.6 °F 30.14 in NE 1.7 mph -999.0 mph 42% 0 in
11:36 69.4 °F 43.4 °F 30.14 in SSW 3.7 mph -999.0 mph 39% 0 in
11:51 69.6 °F 42.9 °F 30.14 in South 3.2 mph -999.0 mph 38% 0 in
12:08 69.4 °F 43.4 °F 30.14 in North 7.3 mph -999.0 mph 39% 0 in
12:23 72.1 °F 45.1 °F 30.14 in NW 3.7 mph -999.0 mph 38% 0 in
12:38 70.5 °F 44.4 °F 30.14 in WNW 4.2 mph -999.0 mph 39% 0 in
12:54 70.0 °F 43.9 °F 30.14 in WNW 3.7 mph -999.0 mph 39% 0 in
13:09 68.9 °F 44.2 °F 30.13 in ENE 3.7 mph -999.0 mph 41% 0 in
13:24 69.6 °F 44.2 °F 30.13 in NW 4.2 mph -999.0 mph 40% 0 in
13:40 68.5 °F 44.5 °F 30.13 in NE 4.2 mph -999.0 mph 42% 0 in
13:55 68.5 °F 44.5 °F 30.13 in SE 2.7 mph -999.0 mph 42% 0 in
14:10 67.6 °F 44.3 °F 30.13 in West 6.8 mph -999.0 mph 43% 0 in
14:25 68.4 °F 45.6 °F 30.13 in NW 8.3 mph -999.0 mph 44% 0 in
14:41 69.3 °F 45.8 °F 30.13 in SSW 3.2 mph -999.0 mph 43% 0 in
14:56 69.8 °F 46.3 °F 30.13 in North 2.2 mph -999.0 mph 43% 0 in
15:11 68.7 °F 45.3 °F 30.13 in ESE 10.4 mph -999.0 mph 43% 0 in
15:26 67.8 °F 45.7 °F 30.13 in West 3.7 mph -999.0 mph 45% 0 in
15:41 67.6 °F 46.1 °F 30.12 in North 3.7 mph -999.0 mph 46% 0 in
15:57 67.8 °F 46.3 °F 30.12 in East 3.2 mph -999.0 mph 46% 0 in
16:12 67.3 °F 45.8 °F 30.12 in NW 2.2 mph -999.0 mph 46% 0 in
16:27 68.4 °F 45.6 °F 30.11 in SW 3.2 mph -999.0 mph 44% 0 in
16:43 70.3 °F 46.7 °F 30.11 in North 6.3 mph -999.0 mph 43% 0 in
16:58 69.6 °F 46.1 °F 30.10 in WSW 2.7 mph -999.0 mph 43% 0 in
17:13 69.4 °F 46.5 °F 30.10 in NNW 2.7 mph -999.0 mph 44% 0 in
17:28 70.5 °F 46.9 °F 30.10 in SSE 4.7 mph -999.0 mph 43% 0 in
17:43 71.1 °F 46.8 °F 30.10 in NW 5.3 mph -999.0 mph 42% 0 in
17:59 68.0 °F 45.3 °F 30.09 in SW 3.2 mph -999.0 mph 44% 0 in
18:14 68.2 °F 45.5 °F 30.09 in NE 3.2 mph -999.0 mph 44% 0 in
18:29 63.9 °F 44.9 °F 30.09 in SW 2.2 mph -999.0 mph 50% 0 in
18:45 64.8 °F 45.2 °F 30.09 in NW 2.2 mph -999.0 mph 49% 0 in
19:00 61.7 °F 43.4 °F 30.09 in WNW 3.7 mph -999.0 mph 51% 0 in
19:15 61.2 °F 42.4 °F 30.09 in SE 2.2 mph -999.0 mph 50% 0 in
19:30 57.6 °F 42.5 °F 30.09 in ESE 1.7 mph -999.0 mph 57% 0 in
19:45 55.4 °F 43.8 °F 30.08 in Calm   -999.0 mph 65% 0 in
20:16 52.9 °F 43.4 °F 30.08 in South 1.7 mph -999.0 mph 70% 0 in
20:31 52.0 °F 43.6 °F 30.09 in ENE 2.2 mph -999.0 mph 73% 0 in
20:47 51.3 °F 43.6 °F 30.09 in East 2.7 mph -999.0 mph 75% 0 in
21:02 51.3 °F 44.3 °F 30.09 in WSW 2.7 mph -999.0 mph 77% 0 in
21:17 51.1 °F 43.5 °F 30.09 in WNW 2.2 mph -999.0 mph 75% 0 in
21:33 51.1 °F 42.0 °F 30.09 in NW 2.7 mph -999.0 mph 71% 0 in
21:48 51.3 °F 42.2 °F 30.09 in NNW 3.2 mph -999.0 mph 71% 0 in
22:03 51.4 °F 40.4 °F 30.09 in WNW 2.2 mph -999.0 mph 66% 0 in
22:18 51.4 °F 37.5 °F 30.09 in NW 2.7 mph -999.0 mph 59% 0 in
22:34 51.4 °F 30.8 °F 30.09 in WNW 2.2 mph -999.0 mph 45% 0 in
22:49 51.1 °F 25.1 °F 30.09 in NNW 2.2 mph -999.0 mph 36% 0 in
23:05 51.1 °F 19.9 °F 30.09 in Calm   -999.0 mph 29% 0 in
23:20 51.1 °F 16.5 °F 30.08 in Calm   -999.0 mph 25% 0 in
23:35 50.9 °F 16.3 °F 30.08 in Calm   -999.0 mph 25% 0 in
23:50 50.9 °F 17.2 °F 30.08 in Calm   -999.0 mph 26% 0 in
Big Bear CA Weather